This is the latest recevied weather packets stored in our database for station/object VE3EP-1. If no packets are shown the sender has not sent any weather packets the latest 10 day(s).
| Time | Temp. | Humidity | Pressure | Rain* | Wind** | Luminosity | Snow |
|---|---|---|---|---|---|---|---|
| 1777638728 | 6.11° C | 61% | 1016.3 hPa | 0 mm | - | - | - |
| 1777638128 | 6.11° C | 58% | 1016.5 hPa | 0 mm | - | - | - |
| 1777636928 | 5.56° C | 61% | 1016.6 hPa | 0 mm | - | - | - |
| 1777635728 | 5.56° C | 61% | 1016.5 hPa | 0 mm | - | - | - |
| 1777635128 | 5.56° C | 65% | 1016.5 hPa | 0 mm | - | - | - |
| 1777634530 | 3.89° C | 70% | 1016.4 hPa | 0 mm | - | - | - |
| 1777633330 | 1.67° C | 79% | 1016.3 hPa | 0 mm | - | - | - |
| 1777632728 | 1.11° C | 80% | 1016.1 hPa | 0 mm | - | - | - |
| 1777631530 | 1.11° C | 77% | 1015.9 hPa | 0 mm | - | - | - |
| 1777630928 | 1.67° C | 77% | 1015.9 hPa | 0 mm | - | - | - |
| 1777629728 | 1.11° C | 79% | 1015.8 hPa | 0 mm | - | - | - |
| 1777629128 | 1.67° C | 77% | 1015.8 hPa | 0 mm | - | - | - |
| 1777628533 | 1.67° C | 75% | 1015.8 hPa | 0 mm | - | - | - |
| 1777627929 | 1.67° C | 77% | 1015.9 hPa | 0 mm | - | - | - |
| 1777627329 | 2.22° C | 73% | 1015.6 hPa | 0 mm | - | - | - |
| 1777626728 | 2.78° C | 71% | 1015.6 hPa | 0 mm | - | - | - |
| 1777626128 | 3.33° C | 70% | 1015.6 hPa | 0 mm | - | - | - |
| 1777625528 | 3.89° C | 67% | 1015.7 hPa | 0 mm | - | - | - |
| 1777624928 | 3.89° C | 67% | 1015.4 hPa | 0 mm | - | - | - |
| 1777624328 | 3.89° C | 68% | 1015.4 hPa | 0 mm | - | - | - |
| 1777623728 | 3.89° C | 68% | 1015.4 hPa | 0 mm | - | - | - |
| 1777622528 | 3.89° C | 69% | 1015.3 hPa | 0 mm | - | - | - |
| 1777621928 | 3.89° C | 69% | 1015 hPa | 0 mm | - | - | - |
| 1777620728 | 3.33° C | 71% | 1015.1 hPa | 0 mm | - | - | - |
| 1777620128 | 3.89° C | 70% | 1015.1 hPa | 0 mm | - | - | - |
* Rain latest hour (hover to see other rain measurements)
** Current wind speed in m/s (hover to see current wind gust speed)